SBIRS GEO-2 (USA 241)

Last updated on Jan. 29, 2020, 4:37 a.m. UTC

1 39120U 13011A   20028.79061752  .00000122  00000-0  00000+0 0  9994
2 39120   2.2886 338.1836 0002330 325.4698 129.0629  1.00272185 25215
UTC
Height (km)
Latitude
Longitude
Inclination
Orbital Period
UTC large
Height (km)
Speed (km/s)
/
Latitude / Longitude
Inclination (degrees)
Orbital Period (minutes)
Azimuth
Elevation
Range (km)
Doppler Factor
iOS Compass Heading
iOS Angle

Next 30 passes for location: Hong Kong

Rise time Rise Azimuth (degrees) Set time Set Azimuth (degrees) Duration Max altitude (degrees)

No matching passes for this satellites